Retour au catalogue

NOAA 16 DEB

ActifSSO
NORAD 41300·DEBRIS·🇺🇸 United States

Lancé Sep 21, 2000 depuis Vandenberg Space Force Base

Loading…

Prochains Passages (prochaines 24 heures)

TLE

FraisSource: Space-Track

Époque: Sep 12, 2026, 06:54 UTC

1 41300U 00055HC  26255.28756442  .00001642  00000-0  84324-3 0  9993
2 41300  98.6936 279.7578 0038966 350.6177   9.4265 14.16324245549733

Suivez NOAA 16 DEB en temps réel avec AllMySat

Download on the App Store